Miscellaneous Local Product
Issued by NWS Hastings, NE

Home | Current Version | Previous Version | Graphics & Text | Print | Product List | Glossary On
Versions: 1 2 3 4 5 6 7 8 9 10 11 12 13 14 15 16 17 18 19 20 21 22 23 24 25 26 27 28 29 30 31 32 33 34 35 36 37 38 39 40 41 42 43 44 45 46 47 48 49 50
935
AXUS43 KGID 250902
MISGRI

GID CWA HOURLY WEATHER ROUNDUP
NATIONAL WEATHER SERVICE HASTINGS NE
400 AM CDT SAT MAR 25 2017

NOTE: "FAIR" INDICATES FEW OR NO CLOUDS BELOW 12,000 FEET WITH NO
SIGNIFICANT WEATHER AND/OR OBSTRUCTIONS TO VISIBILITY.

...SOUTH CENTRAL NEBRASKA...

CITY           SKY/WX    TMP DP  RH WIND       PRES   REMARKS
GRAND ISLAND   CLOUDY    37  37 100 N15       30.01R FOG     WCI  28
HASTINGS       CLOUDY    39  37  92 N18       30.00R FOG     WCI  30
KEARNEY        CLOUDY    39  36  87 N16       30.01F WCI  30
ORD            CLOUDY    37  34  89 N15       30.04S FOG     WCI  28
YORK           MIX PCPN  39  39 100 N18G26    29.98R WCI  30
AURORA         CLOUDY    38  37  97 N20       30.00R FOG     WCI  27
LEXINGTON      CLOUDY    37  34  89 N8        30.04F WCI  31
HOLDREGE       CLOUDY    40  37  91 N9        30.00F WCI  34
HEBRON         RAIN      40  39  95 N15G21    29.95F WCI  32

...NEBRASKA PANHANDLE...

CITY           SKY/WX    TMP DP  RH WIND       PRES   REMARKS
CHADRON        CLOUDY    39  29  67 S3        30.02F
ALLIANCE       CLOUDY    23  20  88 CALM      30.05F
SCOTTSBLUFF    CLOUDY    32  26  78 E8        30.05F WCI  25
SIDNEY         CLOUDY    24  22  91 NW8       30.07F WCI  15

...WESTERN AND NORTH CENTRAL NEBRASKA...

CITY           SKY/WX    TMP DP  RH WIND       PRES   REMARKS
VALENTINE      CLOUDY    25  21  85 SW5       30.07F WCI  19
AINSWORTH      CLOUDY    28  27  99 N5        30.08S WCI  22
ONEILL         CLOUDY    36  35  98 N12       30.07F FOG     WCI  27
BROKEN BOW     CLOUDY    35  33  92 N14       30.04F WCI  26
IMPERIAL       CLEAR     33  28  81 VRB3      30.06S
NORTH PLATTE   CLEAR     32  27  81 SW3       30.06S
MCCOOK         CLEAR     36  34  92 N9        30.04F WCI  29

...EASTERN NEBRASKA...

CITY           SKY/WX    TMP DP  RH WIND       PRES   REMARKS
NORFOLK        CLOUDY    36  35  96 N17G25    30.02S FOG     WCI  26
SO SIOUX CITY  CLOUDY    39  38  96 NE15G22   30.03S WCI  31
TEKAMAH        CLOUDY    41  38  89 N15       29.98S
COLUMBUS       CLOUDY    37  36  93 N15G24    30.00S WCI  28
ALBION         CLOUDY    37  35  92 N17       30.03R FOG     WCI  28
OMAHA EPPLEY   LGT RAIN  42  37  82 N17       29.93R
OFFUTT AFB     MIX PCPN  41  39  92 N12       29.91R
MILLARD        DRIZZLE   43  41  94 N9G20     29.93R
LINCOLN        CLOUDY    42  40  92 N18       29.95R
NEBRASKA CITY  LGT RAIN  40  40 100 N21       29.88R WCI  31
BEATRICE       CLOUDY    41  40  96 N14G20    29.91S
FALLS CITY     LGT RAIN  44  43  96 N10       29.83S FOG

...NORTHERN KANSAS...

CITY           SKY/WX    TMP DP  RH WIND       PRES   REMARKS
GOODLAND       CLEAR     33  31  92 NW7       30.06R WCI  27
HILL CITY      CLOUDY    42  41  96 N10       30.02F
NORTON         CLOUDY    39  36  87 N8        30.01F WCI  34
PHILLIPSBURG   CLOUDY    43  43 100 NW10      30.01F
HAYS             N/A     42  39  89 N15       29.98F
RUSSELL        CLOUDY    41  39  93 N20       29.95F
CONCORDIA      LGT RAIN  41  40  96 N14       29.93S
SALINA         CLOUDY    44  41  89 N20       29.91F
TOPEKA         CLOUDY    47  47 100 NW10G21   29.79F FOG



USA.gov is the U.S. government's official web portal to all federal, state and local government web resources and services.